Showing default

ESSA 8 (TOS-F), 3615

Orbit data source: Space-Track

ESSA 8 (TOS-F), 3615 is a payload satellite owned by ESSA (US) in SSO that was launched on Sun, 15 Dec 1968 UTC via a THOR DELTA N launch vehicle from the Air Force Western Test Range (AFWTR). Payload-class satellites include a variety of spacecraft equipped with specific instruments for various scientific and technological missions. These include communications satellites like Starlink; space stations such as the ISS; scientific satellites like the Hubble; Earth observation satellites from companies like Planet Labs, Umbra, and HawkEye 360; GPS; miniature CubeSats for education and research; and military/defense satellites.

Loading next visibility...
Identifier
3615, 1968-114A
Orbit
SSO
Country
Flag of USUS
Related business
Manufacturer
RCA/East Windsor
Mission
Non-operational spacecraft
Bus & Motor
TIROS I, Unknown motor
Mass
131 kg wet, 131 kg dry
Launch date (UTC)
Icon of a cake. It is the launch day of the satellite!1968-12-15 (57 years ago)
Launch vehicle
THOR DELTA N
Launch site
Air Force Western Test Range (AFWTR)
Object type
Payload
Rocket body
Debris
Shape & HBR
Unknown
Radar Cross Section
Medium (>0.1 m² and <1 m²)

Expand to show TLE details & history
Last TLE update: 18 hours ago

TLE from 18 hours ago
0 ESSA 8 (TOS-F)
1 03615U 68114A   25348.86204779 -.00000039  00000-0  37914-4 0  9991
2 03615 101.6765 295.0817 0031861 321.2935  38.5857 12.56246568613415
Epoch: 2025-12-14T20:41Z
TLE epoch observation values (Epoch: 2025-12-14T20:41:20.929Z)
Latitude
0.00004°
Longitude
-99.02439°
Altitude
1,421.62 km
Speed
7.159 km/s
True Right ascension
19h 40m 19s
True Declination
0° 00' 00"
Sunlit
Object was in daylight at epoch
Visualization orbit readout
Latitude
Unknown
Longitude
Unknown
Altitude
Unknown
Speed
Unknown
Apparent Right ascension
Unknown
Apparent Declination
Unknown
Sunlit
N/A
Visualization observer readout
Local Sidereal Time
13:22:56
Azimuth
Unknown
Elevation
Unknown
Doppler factor
Unknown
Orbital elements
Apogee altitude
1,460.906 km
Perigee altitude
1,411.113 km
Semi-major axis
7,814.147 km
Eccentricity
0.00319
Inclination
101.6765°
RAAN
295.0817°
Arg. of periapsis
321.2935°
True anomaly
38.81412°
Mean anomaly
38.5857°
Eccentric anomaly
38.69984°
Mean motion
3.14211 °/min
Orbital period
114.57 mins
BSTAR
0.000037914
Loading maneuver chart data...
Computing Atmospheric mass density...
Loading historical data...
Loading historical data...
Loading historical data...
Loading historical data...
Loading historical data...
Loading historical data...
Loading historical data...

Documentation

Showing up to 5 results
|